STARLINK-37588, 69842

Orbit data source: Space-Track

STARLINK-37588, 69842 is a payload satellite owned by SpaceX/Seattle (US) in LEO that was launched on Sun, 05 Jul 2026 UTC via an FALCON 9 launch vehicle from the Air Force Eastern Test Range (AFETR). Payload-class satellites include a variety of spacecraft equipped with specific instruments for various scientific and technological missions. These include communications satellites like Starlink; space stations such as the ISS; scientific satellites like the Hubble; Earth observation satellites from companies like Planet Labs, Umbra, and HawkEye 360; GPS; miniature CubeSats for education and research; and military/defense satellites.

Loading next visibility...
Identifier
69842, 2026-154Z
Orbit
LEO
Country
Flag of USUS
Related business
Manufacturer
SpaceX/Seattle
Mission
Operational spacecraft
Bus & Motor
STARLINK V2MO, Unknown motor
Mass
575 kg wet, ~530 kg dry
Launch date (UTC)
2026-07-05 (1 month ago)
Launch vehicle
FALCON 9
Launch site
Air Force Eastern Test Range (AFETR)
Object type
Payload
Rocket body
Debris
Shape & HBR
BOX + PAN, 17.7 m
Radar Cross Section
Large (>1 m²)

Expand to show TLE details & history
Last TLE update: 8 hours ago

TLE from 8 hours ago
0 STARLINK-37588
1 69842U 26154Z   26220.11603510  .00036825  00000-0  66659-3 0  9995
2 69842  53.1601 174.7925 0000982  74.0192 286.0926 15.49329034  6575
Epoch: 2026-08-08T02:47Z
TLE epoch observation values (Epoch: 2026-08-08T02:47:05.432Z)
Latitude
0.00003°
Longitude
176.38789°
Altitude
419.41 km
Speed
7.661 km/s
True Right ascension
11h 39m 10s
True Declination
0° 00' 00"
Sunlit
Object was in daylight at epoch
Visualization orbit readout
Latitude
Unknown
Longitude
Unknown
Altitude
Unknown
Speed
Unknown
Apparent Right ascension
Unknown
Apparent Declination
Unknown
Sunlit
N/A
Visualization observer readout
Local Sidereal Time
01:07:47
Azimuth
Unknown
Elevation
Unknown
Doppler factor
Unknown
Orbital elements
Apogee altitude
419.614 km
Perigee altitude
418.279 km
Semi-major axis
6,797.083 km
Eccentricity
0.0001
Inclination
53.1601°
RAAN
174.7925°
Arg. of periapsis
74.0192°
True anomaly
286.08179°
Mean anomaly
286.0926°
Eccentric anomaly
286.08719°
Mean motion
3.87311 °/min
Orbital period
92.95 mins
BSTAR
0.00066659
Loading maneuver chart data...
Computing Atmospheric mass density...
Loading historical data...
Loading historical data...
Loading historical data...
Loading historical data...
Loading historical data...
Loading historical data...
Loading historical data...

Documentation

Showing up to 5 results
|